TimeCDT,TemperatureF,Dew PointF,Humidity,Sea Level PressureIn,VisibilityMPH,Wind Direction,Wind SpeedMPH,Gust SpeedMPH,PrecipitationIn,Events,Conditions,WindDirDegrees,DateUTC
12:53 AM,71.1,64.0,78,29.81,10.0,South,4.6,-,N/A,,Clear,180,2013-08-31 05:53:00
1:53 AM,70.0,64.0,81,29.80,10.0,SSW,4.6,-,N/A,,Clear,200,2013-08-31 06:53:00
2:53 AM,68.0,64.0,87,29.81,10.0,Calm,Calm,-,N/A,,Clear,0,2013-08-31 07:53:00
3:53 AM,69.1,63.0,81,29.84,10.0,East,6.9,-,N/A,,Scattered Clouds,80,2013-08-31 08:53:00
4:53 AM,68.0,64.0,87,29.83,10.0,Calm,Calm,-,N/A,,Clear,0,2013-08-31 09:53:00
5:53 AM,66.9,64.0,90,29.83,10.0,ENE,4.6,-,N/A,,Clear,60,2013-08-31 10:53:00
6:53 AM,66.9,64.9,93,29.83,10.0,East,3.5,-,N/A,,Clear,90,2013-08-31 11:53:00
7:53 AM,72.0,66.0,81,29.83,10.0,Variable,3.5,-,N/A,,Clear,0,2013-08-31 12:53:00
8:53 AM,79.0,68.0,69,29.82,10.0,Variable,6.9,-,N/A,,Clear,0,2013-08-31 13:53:00
9:53 AM,82.0,71.1,69,29.83,10.0,SW,5.8,-,N/A,,Clear,220,2013-08-31 14:53:00
10:53 AM,82.0,73.0,74,29.82,10.0,South,3.5,-,N/A,,Clear,190,2013-08-31 15:53:00
11:53 AM,88.0,75.9,67,29.80,10.0,SSW,6.9,-,N/A,,Partly Cloudy,210,2013-08-31 16:53:00
12:53 PM,91.9,75.9,59,29.79,10.0,SSW,8.1,-,N/A,,Clear,200,2013-08-31 17:53:00
1:53 PM,95.0,75.9,54,29.77,10.0,SSW,10.4,17.3,N/A,,Clear,200,2013-08-31 18:53:00
2:53 PM,96.1,73.9,49,29.75,10.0,SSW,13.8,-,N/A,,Clear,200,2013-08-31 19:53:00
3:53 PM,95.0,72.0,47,29.71,10.0,SW,11.5,-,N/A,,Scattered Clouds,220,2013-08-31 20:53:00
4:12 PM,95.0,71.6,47,29.73,10.0,SW,11.5,20.7,N/A,Thunderstorm,Scattered Clouds,220,2013-08-31 21:12:00
4:42 PM,95.0,71.6,47,29.73,10.0,WSW,10.4,18.4,N/A,,Mostly Cloudy,240,2013-08-31 21:42:00
4:53 PM,91.9,72.0,52,29.70,10.0,SW,9.2,18.4,N/A,Thunderstorm,Mostly Cloudy,230,2013-08-31 21:53:00
5:17 PM,78.8,71.6,78,29.75,1.5,SW,28.8,38.0,0.06,Rain-Thunderstorm,Thunderstorms and Rain,220,2013-08-31 22:17:00
5:26 PM,73.4,71.6,94,29.75,0.8,South,16.1,38.0,0.16,Rain-Thunderstorm,Heavy Thunderstorms and Rain,170,2013-08-31 22:26:00
5:30 PM,75.2,69.8,83,29.74,2.0,SSE,17.3,33.4,0.16,Rain-Thunderstorm,Light Thunderstorms and Rain,150,2013-08-31 22:30:00
5:38 PM,78.8,69.8,74,29.74,10.0,ESE,9.2,21.9,0.16,Thunderstorm,Thunderstorm,120,2013-08-31 22:38:00
5:53 PM,79.0,69.1,72,29.75,10.0,Variable,6.9,21.9,0.16,Thunderstorm,Thunderstorm,0,2013-08-31 22:53:00
6:17 PM,77.0,69.8,78,29.75,10.0,East,5.8,18.4,N/A,,Partly Cloudy,80,2013-08-31 23:17:00
6:53 PM,75.0,70.0,84,29.75,10.0,East,6.9,19.6,N/A,,Clear,100,2013-08-31 23:53:00
7:05 PM,75.2,69.8,83,29.77,10.0,ENE,6.9,-,N/A,Thunderstorm,Clear,70,2013-09-01 00:05:00
7:31 PM,73.4,66.2,78,29.77,10.0,ESE,4.6,-,N/A,,Clear,110,2013-09-01 00:31:00
7:53 PM,73.9,69.1,85,29.75,10.0,Calm,Calm,-,N/A,,Clear,0,2013-09-01 00:53:00
8:53 PM,73.0,70.0,90,29.74,10.0,Calm,Calm,-,N/A,,Clear,0,2013-09-01 01:53:00
9:53 PM,71.1,69.1,93,29.76,10.0,ENE,3.5,-,N/A,,Scattered Clouds,70,2013-09-01 02:53:00
10:53 PM,71.1,68.0,90,29.79,10.0,East,4.6,-,N/A,,Clear,80,2013-09-01 03:53:00
11:53 PM,69.1,66.9,93,29.78,10.0,ENE,3.5,-,N/A,,Clear,70,2013-09-01 04:53:00